Regional Weather Roundup
Issued by NWS Upton, NY

Current Version | Previous Version | Text Only | Print | Product List | Glossary On
Versions: 1 2 3 4 5 6 7 8 9 10 11 12 13 14 15 16 17 18 19 20 21 22 23 24 25 26 27 28 29 30 31 32 33 34 35 36 37 38 39 40 41 42 43 44 45 46 47 48 49 50
000 ASUS41 KOKX 270205 RWROKX REGIONAL WEATHER ROUNDUP NATIONAL WEATHER SERVICE NEW YORK NY 900 PM EST THU FEB 26 2015 NOTE: "FAIR" INDICATES FEW OR NO CLOUDS BELOW 12,000 FEET WITH NO SIGNIFICANT WEATHER AND/OR OBSTRUCTIONS TO VISIBILITY. NYZ071-072-176-178-NJZ106-104-270300- NEW YORK CITY METRO AREA CITY SKY/WX TMP DP RH WIND PRES REMARKS CENTRAL PARK PTCLDY 24 11 57 VRB3 30.12R LAGUARDIA APRT CLOUDY 24 13 62 N8 30.11R WCI 15 KENNEDY INTL MOCLDY 26 13 57 N8 30.12R WCI 18 NEWARK/LIBERTY MOCLDY 25 14 63 N6 30.11R WCI 18 BRNX BOT. GARD N/A N/A N/A N/A N3 30.12R TETERBORO PTCLDY 24 10 55 NE6 30.11R WCI 17 $$ NYZ177-179-078>081-270300- LONG ISLAND NEW YORK CITY SKY/WX TMP DP RH WIND PRES REMARKS FARMINGDALE MOCLDY 25 14 63 NW8 30.10R WCI 16 ISLIP CLOUDY 26 15 63 NW8 30.08R WCI 18 SHIRLEY CLOUDY 25 15 66 N3 30.10R WESTHAMPTON CLOUDY 24 14 65 N5 30.10R WCI 18 MONTAUK POINT N/A 26 15 63 N7 30.10R WCI 18 $$ NYZ052-065-067-270300- HUDSON VALLEY CITY SKY/WX TMP DP RH WIND PRES REMARKS WHITE PLAINS CLOUDY 20 10 65 NW9 30.07R WCI 9 NEWBURGH CLOUDY 18 10 73 CALM 30.09R MONTGOMERY CLOUDY 17 8 67 CALM 30.09R POUGHKEEPSIE CLOUDY 20 4 50 CALM 30.11R ALBANY CLOUDY 14 -6 40 N9 30.14R WCI 2 $$ NJZ001-105-106-008-010-013-015-019>022-104-270300- NEW JERSEY CITY SKY/WX TMP DP RH WIND PRES REMARKS NEWARK/LIBERTY MOCLDY 25 14 63 N6 30.11R WCI 18 TETERBORO PTCLDY 24 10 55 NE6 30.11R WCI 17 CALDWELL PTCLDY 22 10 60 CALM 30.11R MORRISTOWN PTCLDY 21 12 68 NE3 30.10R SOMERVILLE PTCLDY 21 12 68 CALM 30.10R SUSSEX PTCLDY 18 9 68 N3 30.10R ANDOVER N/A 14 9 80 CALM 30.09R TRENTON PTCLDY 24 13 62 NW3 30.09R MILLVILLE PTCLDY 21 14 74 W3 30.11R ATLANTIC CITY PTCLDY 21 15 78 NW5 30.10R WCI 15 WRIGHTSTOWN NOT AVBL TOMS RIVER PTCLDY 21 16 79 CALM 30.10R BELMAR PTCLDY 23 14 68 CALM 30.09R $$ PAZ047>061-062-071-270300- EASTERN PENNSYLVANIA CITY SKY/WX TMP DP RH WIND PRES REMARKS PHILADELPHIA MOCLDY 29 15 56 CALM 30.13R ALLENTOWN MOCLDY 22 14 71 NW3 30.10R SCRANTON CLOUDY 19 9 65 N3 30.06R $$ CTZ002-004>006-009-010-012-RIZ004-006-007-MAZ004-011-015-270300- SOUTHERN NEW ENGLAND IN CT CITY SKY/WX TMP DP RH WIND PRES REMARKS BRADLEY INTL CLOUDY 21 9 59 NW6 30.08R WCI 13 HARTFORD CLOUDY 23 10 57 NW6 30.10R WCI 16 DANBURY CLOUDY 19 7 59 W3 30.09R WTRBRY/OXFORD CLOUDY 19 7 58 NW5 30.05R WCI 13 BRIDGEPORT CLOUDY 24 14 65 NW6 30.10R WCI 17 MERIDEN CLOUDY 22 11 62 CALM 30.08R NEW HAVEN CLOUDY 24 12 60 N7 30.08R WCI 16 CHESTER CLOUDY 23 12 63 N6 30.05R WCI 16 GROTON CLOUDY 22 14 71 NE3 30.08R WILLIMANTIC MOCLDY 20 12 71 CALM 30.07R IN RI CITY SKY/WX TMP DP RH WIND PRES REMARKS PROVIDENCE CLOUDY 21 12 68 N3 30.08R BLOCK ISLAND PTCLDY 23 12 63 N7 30.05R WCI 15 WESTERLY CLOUDY 21 13 71 CALM 30.08R IN MA CITY SKY/WX TMP DP RH WIND PRES REMARKS BOSTON CLOUDY 21 8 57 N5 30.08R WCI 15 WORCESTER CLOUDY 20 4 50 N3 29.99R WESTFIELD CLOUDY 22 4 46 NW5 30.07R WCI 16 PROVINCETOWN PTCLDY 25 12 58 N14 30.05R WCI 13 NANTUCKET CLOUDY 27 19 72 N16 30.03R WCI 15 $$ ANZ330-335-338-340-345-350-353-355-270300- COASTAL MARINE OBSERVATIONS STATION/POSITION TIME SKY/WX TEMP WIND PRES VSBY WAVE AIR SEA DIR/SP/G HT/PER (UTC) (F) (DEG/KT/KT) (MB) (MI) (FT/S) NY HARB ENTRANCE 0200 29 38 330/ 10/ 12 1019.2 3/ 9 4S FIRE IS NOT AVBL 20S FIRE ISLAND 0100 36 1018.4 5/ 6 23SW MTP 0200 N/A 4/ 6 HUDSON CANYON NOT AVBL EXECUTION ROCKS NOT AVBL WESTERN LI SOUND NOT AVBL CENTRAL LI SOUND NOT AVBL EASTERN LI SOUND NOT AVBL ROBBINS REEF 0200 25 350/ 7/ 9 1018.4 $$ >>>>>>>>>>>>>>>>>>>>>>>>>>>> KEY <<<<<<<<<<<<<<<<<<<<<<<<<<< > < > SKY/WX - SKY CONDITION/PRESENT WEATHER < > TMP - TEMPERATURE IN FAHRENHEIT < > DP - DEWPOINT IN FAHRENHEIT < > RH - RELATIVE HUMIDITY IN PERCENT < > WIND - DIRECTION AND SPEED IN MPH < > PRES - MEAN SEA LEVEL PRESSURE IN INCHES OF HG < > WCI - WIND CHILL INDEX < > VSB - VISIBILITY IN MILES < > HX - HEAT INDEX < > TC - TEMPERATURE IN CELSIUS < > VRB - VARIABLE WIND DIRECTION < > < >>>>>>>>>>>>>>>>>>>>>>>>>>>> KEY <<<<<<<<<<<<<<<<<<<<<<<<<<<

USA.gov is the U.S. government's official web portal to all federal, state and local government web resources and services.